Regional Weather Roundup
Issued by NWS

Home | Current Version | Previous Version | Text Only | Print | Product List | Glossary On
Versions: 1 2 3 4 5 6 7 8 9 10 11 12 13 14 15 16 17 18 19 20 21 22 23 24 25 26 27 28 29 30 31 32 33 34 35 36 37 38 39 40 41 42 43 44 45 46 47 48 49 50
870
ASUS44 KLUB 090610
RWRTX
WEST TEXAS WEATHER ROUNDUP
NATIONAL WEATHER SERVICE LUBBOCK TX
1200 AM CST TUE FEB 09 2016

NOTE: "FAIR" INDICATES FEW OR NO CLOUDS BELOW 12,000 FEET WITH NO
SIGNIFICANT WEATHER AND/OR OBSTRUCTIONS TO VISIBILITY.

TXZ004-006>008-010-012-014-016-OKZ002-090700-
TEXAS PANHANDLE/OKLAHOMA PANHANDLE

CITY           SKY/WX    TMP DP  RH WIND       PRES   REMARKS
AMARILLO       CLOUDY    29  19  66 W7        30.36F WCI  22
BORGER         CLEAR     34  21  59 W8        30.35F WCI  27
CANADIAN       CLEAR     31  17  57 SW3       30.33F
DALHART        CLOUDY    30  19  63 W10       30.37F WCI  21
DUMAS          CLOUDY    32  20  61 W10       30.35F WCI  24
GUYMON         CLEAR     33  21  61 W10       30.32S WCI  25
PAMPA          CLEAR     31  19  62 W7        30.33F WCI  24
PERRYTON       CLEAR     27  19  69 W8        30.31F WCI  19
$$

TXZ026-029-035-045-048-090700-
SOUTHERN PANHANDLE/SOUTH PLAINS/ROLLING PLAINS

CITY           SKY/WX    TMP DP  RH WIND       PRES   REMARKS
CHILDRESS      CLEAR     36  19  50 NW5       30.36R WCI  32
SEMINOLE       CLOUDY    34  17  50 W6        30.41S WCI  28
LUBBOCK        CLOUDY    30  18  60 W7        30.38F WCI  23
PLAINVIEW      CLOUDY    26  16  67 W8        30.37S WCI  17
SNYDER           N/A     39  20  46 NW7       30.39F WCI  34
$$

TXZ052-054-060>062-072-078-127-140-154-169-090700-
PERMIAN BASIN/CONCHO VALLEY/BIG COUNTRY/EDWARDS PLATEAU

CITY           SKY/WX    TMP DP  RH WIND       PRES   REMARKS
ABILENE        PTCLDY    37  19  48 W6        30.36S WCI  32
BIG SPRING     CLEAR     30  15  53 CALM      30.43R
JUNCTION       CLEAR     34  20  56 W6        30.38S WCI  29
MIDLAND        CLEAR     35  19  52 W9        30.41S WCI  28
ODESSA         CLEAR     38  16  40 W6        30.42S WCI  33
SAN ANGELO     CLEAR     37  17  44 W9        30.39R WCI  30
SONORA         CLEAR     30  19  64 CALM      30.44S
SWEETWATER     CLEAR     46  16  30 W7        30.40S
WINK           CLOUDY    32  14  47 N6        30.42S WCI  26
$$

TXZ055-058-074-075-080-082-090700-
FAR WEST/SOUTHWEST MOUNTAINS/TRANS PECOS

CITY           SKY/WX    TMP DP  RH WIND       PRES   REMARKS
ALPINE         CLOUDY    29  16  56 CALM      30.46R
DRYDEN           N/A     41  15  35 NW7       30.39S
EL PASO        CLEAR     44  14  29 NE6       30.35F
FORT STOCKTON  CLOUDY    37  19  48 S8        30.42S WCI  31
GUADALUPE PASS CLOUDY    35  11  36 NE22      30.40S WCI  23
MARFA          CLOUDY    23  13  65 N9        30.42R WCI  13
PECOS          CLOUDY    30  17  56 NW3       30.44S
PRESIDIO       FAIR      47  11  23 N7        30.38R
$$

TXZ014-016-019-021>030-083-090700
TEXAS TECH WEST TEXAS MESONET/TEXAS PANHANDLE/NORTHERN SOUTH PLAINS

CITY           SKY/WX    TMP DP  RH WIND       PRES   REMARKS
ABERNATHY 5ENE   N/A     29  19  65 NW7       30.39S WCI  22
AMARILLO 9NNE    N/A     32  20  61 W8        30.36F WCI  25
AMARILLO 7SSE    N/A     26  18  73 W6        30.37F WCI  19
AMHERST 1NE      N/A     29  14  53 NW8       30.40S WCI  21
BOOTLEG 11WNW    N/A     35  18  48 N1        30.42S
CANADIAN 6E      N/A     29  15  57 W7        30.30F WCI  21
CAPROCK CYN SP   N/A     40  21  47 W12       30.36F WCI  33
CHILDRESS 2NNE   N/A     36  20  51 NW8       30.36S WCI  30
CLARENDON 2WSW   N/A     30  19  65 W6        30.34F WCI  24
CLAUDE 12SW      N/A     38  20  47 W12       30.35F WCI  31
DIMMITT 2NE      N/A     29  18  61 W10       30.39S WCI  20
FLOYDADA 2NNE    N/A     28  18  67 NW8       30.37S WCI  20
FRIONA 2NE       N/A     24  15  69 W10       30.41S WCI  13
GOODLETT 3W      N/A     35  19  51 W12       30.36R WCI  26
HART 3N          N/A     28  18  66 W9        30.39S WCI  19
HEREFORD 2NW     N/A     28  14  56 W9        30.39S WCI  19
MCLEAN 1E        N/A     28  17  62 NW5       30.32F WCI  23
MEMPHIS 1NE      N/A     36  20  54 NW6       30.36S WCI  31
MULESHOE 2SSW    N/A     21  13  71 W3        30.41S
OLTON 6S         N/A     30  17  58 NW8       30.39S WCI  23
PALO DURO SP     N/A     31  18  60 W12       30.37F WCI  21
PAMPA 2E         N/A     31  20  63 W5        30.33F WCI  26
PLAINVIEW 1S     N/A     32  19  59 W5        30.38S WCI  27
SILVERTON 7ESE   N/A     28  19  67 W10       30.36F WCI  19
TULIA 2ENE       N/A     31  21  67 W7        30.37S WCI  24
TURKEY 2WSW      N/A     37  22  56 W8        30.35F WCI  30
UMBARGER 3NNE    N/A     29  17  61 W8        30.38S WCI  21
$$

TXZ033>036-039>041-045>048-090700
TEXAS TECH WEST TEXAS MESONET/SOUTH PLAINS

CITY           SKY/WX    TMP DP  RH WIND       PRES   REMARKS
AIKEN 3WSW       N/A     27  18  67 W8        30.39S WCI  19
ANDREWS 2NE      N/A     38  15  38 W7        30.41S WCI  32
ANTON 6SSW       N/A     28  12  52 NW7       30.40S WCI  20
BROWNFIELD 2S    N/A     30  15  53 NW8       30.40S WCI  22
DENVR CTY 7WNW   N/A     32  13  45 W8        30.40S WCI  25
GAIL 2ESE        N/A     35  18  49 NW3       30.39R
LAMESA 2SE       N/A     35  15  43 W7        30.41R WCI  29
LEVELLAND 4S     N/A     27  13  56 W8        30.40S WCI  18
LUBBOCK 3WNW     N/A     34  16  48 W3        30.40S
MORTON 1ENE      N/A     28  14  56 W7        30.40S WCI  20
ODONNELL 1N      N/A     29  14  52 W7        30.40R WCI  22
PLAINS 3N        N/A     27  13  55 W8        30.41S WCI  19
RALLS 1SE        N/A     33  17  51 NW5       30.38F WCI  28
REESE CENTER     N/A     29  16  57 NW7       30.40S WCI  22
SEAGRAVES 1SW    N/A     28  13  52 W5        30.41S WCI  23
SEMINOLE 2NNE    N/A     32  14  47 W5        30.40F WCI  28
SLATON 2NE       N/A     36  19  49 NW2       30.39S
SNYDER 3E        N/A     38  20  46 NW3       30.37F
SUNDOWN 8SW      N/A     28  11  49 W6        30.40R WCI  22
TAHOKA 3NNE      N/A     30  14  52 NW6       30.39S WCI  24
WOLFFORTH 6SSW   N/A     30  11  45 NW6       30.40S WCI  24
$$

TXZ031-032-036>038-042>044-090700-
TEXAS TECH WEST TEXAS MESONET/ROLLING PLAINS

CITY           SKY/WX    TMP DP  RH WIND       PRES   REMARKS
ASPERMONT 3NE    N/A     37  17  44 W3        30.36S
FLUVANNA 3WNW    N/A     40  19  42 NW5       30.38S
GRAHAM 5SSW      N/A     37  18  45 NW13      30.39S WCI  29
GUTHRIE 10WSW    N/A     39  19  43 NW6       30.35S
HASKELL 1NW      N/A     35  15  44 NW8       30.35F WCI  29
JAYTON 1SSE      N/A     36  20  50 W7        30.37S WCI  31
KNOX CITY 3NW    N/A     36  18  49 W3        30.37R
LK A HENRY 1NW   N/A     34  19  53 W8        30.39R WCI  28
NORTHFIELD 1S    N/A     37  22  54 W6        30.37R WCI  32
ODELL 4ENE       N/A     31  14  49 W9        30.35S WCI  23
PADUCAH 10SW     N/A     39  21  48 NW10      30.36R WCI  32
POST 1NE         N/A     41  19  41 W9        30.39S
RRING SPRGS 3N   N/A     33  22  63 W10       30.36S WCI  25
SEYMOUR 3NW      N/A     33  19  55 NW9       30.36R WCI  25
SPUR 1W          N/A     36  21  53 NW8       30.36S WCI  30
WEINERT 2NNE     N/A     35  19  53 NW8       30.36S WCI  28
WHITE RVR 6NE    N/A     37  19  47 W6        30.37S WCI  32
$$

TXZ052-054-060>062-072-078-127-140-154-169-090700-
TEXAS TECH WEST TEXAS MESONET/PERMIAN BASIN/
CONCHO VALLEY/BIG COUNTRY/EDWARDS PLATEAU

CITY           SKY/WX    TMP DP  RH WIND       PRES   REMARKS
COYANOSA 2N      N/A     32  17  54 W3        30.44R
JUNCTION 1SSW    N/A     30  19  63 S5        30.40S WCI  25
MERTZON 3NNE     N/A     33  16  48 SW2       30.41S
SAN ANGELO 7NW   N/A     35  12  39 NW5       30.40R WCI  30
STRLNG CT 4WSW   N/A     27  17  66 NW1       30.41R
ST LAWRNCE 5SW   N/A     34  13  42 W7        30.41R WCI  28
SWEETWATR 11SW   N/A     41  17  38 NW6       30.39S
WALL 1E          N/A     34  13  42 SW9       30.40R WCI  27
$$

TXZ055-058-074-075-080-082-090700-
TEXAS TECH WEST TEXAS MESONET/FAR WEST/SOUTHWEST MOUNTAINS/TRANS PECOS

CITY           SKY/WX    TMP DP  RH WIND       PRES   REMARKS
PRSMN GAP BBNP   N/A     49  10  21 N13       30.38F
GUADLPE MTN NP   N/A     34   9  35 N2        30.43R
$$




USA.gov is the U.S. government's official web portal to all federal, state and local government web resources and services.